LAOSAT 1

Last updated on Thu Aug 13 2026 00:03:00 GMT+0000 (Coordinated Universal Time)

1 41034U 15067A 26224.63621963 -.00000361 00000+0 00000+0 0 9992 2 41034 0.0140 287.8521 0002181 153.7276 237.0019 1.00267882 39429
UTC large
Height (km)
Speed (km/s)
/
Latitude / Longitude
Inclination (degrees)
Orbital Period (minutes)
Azimuth
Elevation
Range (km)
Doppler Factor

Next 0 passes for location: London (51.5072 / 0.1276)

No passes found over London.
LAOSAT 1